#timestamp,LO_Frequency,Hit,StdDev 
1588284015.3,286046993.3,N
1588284035.1,286046996.4,N
1588284055.9,286046990.8,N
1588284075.7,286046994.8,N
1588284095.6,286046996.8,N
1588284115.4,286047004.1,N
1588284135.2,286047004.3,N
1588284155.1,286047002.1,N
1588284156.0,286047002.1,N
1588284175.8,286047000.4,N
1588284195.6,286046997.6,N
1588284215.5,286046987.4,N
1588284235.3,286046973.2,Y
1588284255.2,286046966.4,P
1588284275.9,286046960.9,N
1588284295.7,286046964.6,N
1588284315.6,286046965.4,N
1588284335.4,286046970.0,N
1588284355.2,286046979.5,N
1588284375.1,286046983.7,N
1588284376.0,286046983.7,N
1588284395.8,286046986.1,N
1588284415.7,286046986.6,N
1588284435.5,286046990.5,N
1588284455.3,286047001.2,N
1588284475.2,286047003.7,N
1588284495.0,286047002.8,N
1588284495.9,286047002.8,N
1588284515.7,286047007.4,N
1588284535.6,286047009.2,N
1588284555.4,286047002.3,N
1588284575.3,286047006.5,N
1588284595.1,286047008.4,N
1588284596.0,286047008.4,N
1588284615.8,286047010.3,N
1588284635.7,286047009.5,N
1588284655.5,286047005.3,N
1588284675.3,286047008.9,N
1588284695.2,286047014.8,N
1588284715.0,286047013.8,N
1588284715.9,286047013.8,N
1588284735.8,286047012.9,N
1588284755.6,286047016.1,N
1588284775.4,286047017.0,N
1588284795.3,286047018.4,N
1588284815.1,286047015.0,N
1588284835.8,286047014.8,N
1588284855.7,286047014.3,N
1588284875.5,286047018.5,N
1588284895.4,286047012.5,N
1588284915.2,286047016.8,N
1588284935.0,286047011.2,N
1588284935.9,286047011.2,N
1588284955.8,286047010.4,N
1588284975.6,286047008.1,N
1588284995.4,286047013.7,N
1588285015.3,286047007.8,N
1588285035.1,286047016.6,Y
1588285055.9,286047003.0,P
1588285075.7,286046998.3,N
1588285095.5,286046997.6,N
1588285115.4,286046993.1,N
1588285135.2,286046997.6,N
1588285155.0,286046997.5,N
1588285155.9,286046997.5,N
1588285175.8,286046992.7,N
1588285195.6,286046992.9,N
1588285215.5,286046993.7,N
1588285235.3,286047002.4,N
1588285255.1,286046993.3,N
1588285275.9,286046994.0,N
1588285295.7,286046989.0,N
1588285315.5,286046986.9,N
1588285335.4,286046975.7,Y
1588285355.2,286046978.6,P
1588285375.1,286046979.1,N
1588285376.0,286046979.1,N
1588285395.8,286046974.2,Y
1588285415.6,286046990.7,P
1588285435.5,286046984.2,P
1588285455.3,286046989.2,P
1588285475.2,286046984.4,Y
1588285495.0,286047003.8,P
1588285495.9,286047003.8,N
1588285515.7,286047001.5,N
1588285535.6,286047009.3,N
1588285555.4,286047011.9,N
1588285575.3,286047008.3,N
1588285595.1,286047011.0,N
1588285596.0,286047011.0,N
1588285615.8,286047018.8,N
1588285635.7,286047019.4,N
1588285655.5,286047020.4,N
1588285675.3,286047007.8,N
1588285695.2,286047001.5,N
1588285715.0,286046994.8,N
1588285715.9,286046994.8,N
1588285735.8,286046980.9,N
1588285755.6,286046981.4,N
1588285775.4,286046980.4,N
1588285795.3,286046970.4,N
1588285815.1,286046962.8,N
1588285835.8,286046959.1,N
1588285855.7,286046962.7,N
1588285875.5,286046959.1,N
1588285895.4,286046956.6,N
1588285915.2,286046957.5,N
1588285935.0,286046947.3,N
1588285935.9,286046947.3,N
1588285955.8,286046950.6,N
1588285975.6,286046949.1,N
1588285995.4,286046942.7,N
1588286015.3,286046937.1,N
1588286035.1,286046929.5,N
1588286055.9,286046929.2,N
1588286075.7,286046930.4,N
1588286095.5,286046922.8,N
1588286115.4,286046916.1,N
1588286135.2,286046913.6,N
1588286155.0,286046911.2,N
1588286155.9,286046911.2,N
1588286175.8,286046909.0,N
1588286195.6,286046913.2,N
1588286215.5,286046910.8,Y
1588286235.3,286046959.2,P
1588286255.1,286046962.6,P
1588286275.9,286046958.0,P
1588286295.7,286046959.9,Y
1588286315.5,286047007.9,P
1588286335.4,286047006.7,N
1588286355.2,286047003.8,N
1588286375.1,286047004.4,N
1588286376.0,286047004.4,N
1588286395.8,286047000.4,N
1588286415.6,286046995.9,N
1588286435.5,286046987.0,N
1588286455.3,286046992.8,N
1588286475.1,286046999.2,N
1588286495.9,286046999.2,N
1588286515.7,286046996.6,N
1588286535.6,286046993.4,N
1588286555.4,286046995.4,N
1588286575.2,286046990.8,N
1588286595.1,286046988.3,N
1588286596.0,286046986.3,N
1588286615.8,286046987.5,N
1588286635.6,286046983.7,N
1588286655.5,286046990.3,N
1588286675.3,286046993.5,N
1588286695.2,286046985.7,N
1588286715.9,286046982.9,N
1588286735.7,286046972.5,N
1588286755.6,286046971.5,N
1588286775.4,286046967.6,N
1588286795.3,286046965.0,N
1588286815.1,286046975.2,N
1588286816.0,286046975.2,N
1588286835.8,286046980.8,N
1588286855.7,286046983.1,N
1588286875.5,286046986.4,N
1588286895.3,286046992.3,N
1588286915.2,286046991.4,N
1588286935.0,286046989.8,N
1588286935.9,286046989.8,N
1588286955.8,286046988.7,N
1588286975.6,286046989.1,N
1588286995.4,286046992.1,N
1588287015.3,286046987.3,N
1588287035.1,286046984.4,N
1588287055.8,286046986.5,N
1588287075.7,286046989.1,N
1588287095.5,286046990.3,N
1588287115.4,286046992.2,N
1588287135.2,286046994.5,N
1588287155.0,286046985.6,N
1588287155.9,286046985.6,N
1588287175.8,286046983.1,N
1588287195.6,286046981.6,N
1588287215.4,286046983.2,N
1588287235.3,286046989.4,N
1588287255.1,286046981.4,N
1588287275.9,286046984.2,N
1588287295.7,286046985.0,N
1588287315.5,286046982.5,N
1588287335.4,286046978.9,Y
1588287355.2,286046999.2,P
1588287375.0,286047000.5,N
1588287376.0,286047000.5,N
1588287395.8,286046995.6,N
1588287415.6,286046991.8,N
1588287435.5,286046992.0,N
1588287455.3,286046990.8,N
1588287475.1,286046987.6,N
1588287495.9,286046988.6,N
1588287515.7,286046988.6,N
1588287535.6,286046986.4,N
1588287555.4,286046981.1,Y
1588287575.2,286046990.4,P
1588287595.1,286046995.6,P
1588287596.0,286046995.6,N
